TimeCDT,TemperatureF,Dew PointF,Humidity,Sea Level PressureIn,VisibilityMPH,Wind Direction,Wind SpeedMPH,Gust SpeedMPH,PrecipitationIn,Events,Conditions,WindDirDegrees,DateUTC
12:15 AM,53.6,51.8,94,30.27,10.0,NNE,6.9,-,N/A,,Partly Cloudy,20,2013-09-16 05:15:00
12:35 AM,53.6,51.8,94,30.28,10.0,North,5.8,-,N/A,,Scattered Clouds,10,2013-09-16 05:35:00
12:55 AM,53.6,51.8,94,30.28,10.0,North,6.9,-,N/A,,Mostly Cloudy,10,2013-09-16 05:55:00
1:15 AM,53.6,51.8,94,30.29,10.0,North,8.1,-,N/A,,Mostly Cloudy,10,2013-09-16 06:15:00
1:35 AM,53.6,51.8,94,30.30,-9999.0,NNE,6.9,-,N/A,,Unknown,30,2013-09-16 06:35:00
1:55 AM,53.6,51.8,94,30.30,10.0,NE,6.9,-,N/A,,Overcast,40,2013-09-16 06:55:00
2:15 AM,51.8,50.0,94,30.30,10.0,NE,9.2,-,N/A,,Mostly Cloudy,40,2013-09-16 07:15:00
2:35 AM,51.8,50.0,94,30.30,10.0,NNE,9.2,-,N/A,,Mostly Cloudy,30,2013-09-16 07:35:00
2:55 AM,51.8,50.0,94,30.30,10.0,NE,6.9,-,N/A,,Mostly Cloudy,40,2013-09-16 07:55:00
3:15 AM,51.8,50.0,94,30.30,10.0,NNE,6.9,-,N/A,,Scattered Clouds,30,2013-09-16 08:15:00
3:35 AM,50.0,48.2,94,30.31,10.0,NNE,4.6,-,N/A,,Scattered Clouds,30,2013-09-16 08:35:00
3:55 AM,50.0,48.2,94,30.31,10.0,NNE,5.8,-,N/A,,Partly Cloudy,30,2013-09-16 08:55:00
4:15 AM,50.0,48.2,94,30.31,10.0,NE,5.8,-,N/A,,Clear,50,2013-09-16 09:15:00
4:35 AM,48.2,48.2,100,30.32,10.0,NE,5.8,-,N/A,,Clear,40,2013-09-16 09:35:00
4:55 AM,48.2,46.4,93,30.32,10.0,Calm,Calm,-,N/A,,Clear,0,2013-09-16 09:55:00
5:15 AM,48.2,46.4,93,30.32,10.0,NNE,3.5,-,N/A,,Clear,30,2013-09-16 10:15:00
5:35 AM,48.2,46.4,93,30.33,10.0,NE,5.8,-,N/A,,Clear,40,2013-09-16 10:35:00
5:55 AM,48.2,46.4,93,30.33,10.0,Calm,Calm,-,N/A,,Clear,0,2013-09-16 10:55:00
6:15 AM,46.4,46.4,100,30.34,10.0,Calm,Calm,-,N/A,,Clear,0,2013-09-16 11:15:00
6:35 AM,46.4,46.4,100,30.34,10.0,NE,4.6,-,N/A,,Clear,40,2013-09-16 11:35:00
6:55 AM,46.4,46.4,100,30.35,10.0,Calm,Calm,-,N/A,,Clear,0,2013-09-16 11:55:00
7:15 AM,46.4,46.4,100,30.35,10.0,NE,5.8,-,N/A,,Clear,40,2013-09-16 12:15:00
7:35 AM,48.2,46.4,93,30.36,10.0,NE,5.8,-,N/A,,Clear,50,2013-09-16 12:35:00
7:55 AM,48.2,46.4,93,30.36,10.0,NE,5.8,-,N/A,,Clear,40,2013-09-16 12:55:00
8:15 AM,50.0,48.2,94,30.37,10.0,NE,8.1,-,N/A,,Clear,50,2013-09-16 13:15:00
8:35 AM,50.0,48.2,94,30.37,10.0,NE,8.1,-,N/A,,Clear,50,2013-09-16 13:35:00
8:55 AM,51.8,50.0,94,30.38,10.0,East,5.8,-,N/A,,Clear,80,2013-09-16 13:55:00
9:15 AM,53.6,50.0,88,30.38,10.0,East,6.9,-,N/A,,Partly Cloudy,90,2013-09-16 14:15:00
9:35 AM,55.4,50.0,82,30.38,10.0,East,9.2,-,N/A,,Mostly Cloudy,100,2013-09-16 14:35:00
9:55 AM,55.4,50.0,82,30.39,10.0,ENE,9.2,-,N/A,,Overcast,70,2013-09-16 14:55:00
10:15 AM,55.4,50.0,82,30.39,10.0,East,8.1,-,N/A,,Overcast,90,2013-09-16 15:15:00
10:35 AM,57.2,50.0,77,30.39,10.0,Variable,4.6,11.5,N/A,,Overcast,0,2013-09-16 15:35:00
10:55 AM,57.2,50.0,77,30.39,-9999.0,East,6.9,-,N/A,,Overcast,90,2013-09-16 15:55:00
11:15 AM,59.0,50.0,72,30.39,10.0,East,5.8,-,N/A,,Overcast,90,2013-09-16 16:15:00
11:35 AM,59.0,50.0,72,30.39,10.0,Calm,Calm,-,N/A,,Overcast,0,2013-09-16 16:35:00
11:55 AM,60.8,50.0,68,30.39,10.0,Variable,3.5,-,N/A,,Overcast,0,2013-09-16 16:55:00
12:15 PM,60.8,50.0,68,30.39,10.0,Variable,3.5,-,N/A,,Mostly Cloudy,0,2013-09-16 17:15:00
12:35 PM,60.8,50.0,68,30.39,10.0,ENE,5.8,-,N/A,,Overcast,60,2013-09-16 17:35:00
12:55 PM,60.8,48.2,63,30.39,10.0,Calm,Calm,-,N/A,,Overcast,0,2013-09-16 17:55:00
1:15 PM,62.6,50.0,63,30.38,10.0,SE,5.8,-,N/A,,Mostly Cloudy,130,2013-09-16 18:15:00
1:35 PM,64.4,48.2,56,30.37,10.0,Calm,Calm,-,N/A,,Scattered Clouds,0,2013-09-16 18:35:00
1:55 PM,64.4,50.0,59,30.36,10.0,East,8.1,-,N/A,,Scattered Clouds,90,2013-09-16 18:55:00
2:15 PM,66.2,48.2,52,30.36,10.0,Variable,3.5,-,N/A,,Partly Cloudy,0,2013-09-16 19:15:00
2:35 PM,66.2,48.2,52,30.34,10.0,Calm,Calm,-,N/A,,Partly Cloudy,0,2013-09-16 19:35:00
2:55 PM,66.2,48.2,52,30.34,10.0,East,6.9,12.7,N/A,,Clear,100,2013-09-16 19:55:00
3:15 PM,66.2,48.2,52,30.33,10.0,East,5.8,-,N/A,,Clear,80,2013-09-16 20:15:00
3:35 PM,66.2,48.2,52,30.32,10.0,ENE,9.2,-,N/A,,Clear,60,2013-09-16 20:35:00
3:55 PM,66.2,48.2,52,30.31,10.0,Calm,Calm,-,N/A,,Clear,0,2013-09-16 20:55:00
4:15 PM,68.0,48.2,49,30.31,10.0,East,6.9,-,N/A,,Clear,90,2013-09-16 21:15:00
4:35 PM,66.2,46.4,49,30.31,10.0,Variable,4.6,-,N/A,,Clear,0,2013-09-16 21:35:00
4:55 PM,66.2,46.4,49,30.30,10.0,SE,6.9,-,N/A,,Clear,130,2013-09-16 21:55:00
5:15 PM,66.2,46.4,49,30.29,10.0,East,8.1,-,N/A,,Clear,80,2013-09-16 22:15:00
5:35 PM,66.2,44.6,46,30.29,10.0,East,8.1,-,N/A,,Clear,90,2013-09-16 22:35:00
5:55 PM,66.2,46.4,49,30.29,10.0,East,9.2,-,N/A,,Clear,100,2013-09-16 22:55:00
6:15 PM,64.4,46.4,52,30.29,10.0,ESE,9.2,-,N/A,,Clear,110,2013-09-16 23:15:00
6:35 PM,64.4,48.2,56,30.28,10.0,ESE,9.2,-,N/A,,Clear,110,2013-09-16 23:35:00
6:55 PM,62.6,48.2,59,30.29,10.0,East,9.2,-,N/A,,Clear,100,2013-09-16 23:55:00
7:15 PM,59.0,48.2,67,30.28,10.0,East,8.1,-,N/A,,Clear,100,2013-09-17 00:15:00
7:35 PM,57.2,48.2,72,30.28,10.0,ESE,5.8,-,N/A,,Clear,110,2013-09-17 00:35:00
7:55 PM,55.4,48.2,77,30.28,10.0,East,6.9,-,N/A,,Clear,100,2013-09-17 00:55:00
8:15 PM,55.4,48.2,77,30.29,10.0,East,5.8,-,N/A,,Clear,90,2013-09-17 01:15:00
8:35 PM,53.6,48.2,82,30.29,10.0,East,5.8,-,N/A,,Clear,80,2013-09-17 01:35:00
8:55 PM,53.6,46.4,77,30.29,-9999.0,East,4.6,-,N/A,,Clear,100,2013-09-17 01:55:00
9:15 PM,53.6,46.4,77,30.29,10.0,ESE,5.8,-,N/A,,Clear,110,2013-09-17 02:15:00
9:35 PM,51.8,46.4,82,30.29,10.0,East,5.8,-,N/A,,Clear,100,2013-09-17 02:35:00
9:55 PM,51.8,44.6,76,30.29,10.0,East,5.8,-,N/A,,Clear,100,2013-09-17 02:55:00
10:15 PM,50.0,44.6,82,30.29,10.0,ESE,5.8,-,N/A,,Clear,110,2013-09-17 03:15:00
10:35 PM,50.0,44.6,82,30.29,10.0,ESE,5.8,-,N/A,,Clear,110,2013-09-17 03:35:00
10:55 PM,50.0,44.6,82,30.29,10.0,East,6.9,-,N/A,,Clear,100,2013-09-17 03:55:00
11:15 PM,50.0,44.6,82,30.29,10.0,ESE,5.8,-,N/A,,Clear,110,2013-09-17 04:15:00
11:35 PM,50.0,42.8,76,30.29,10.0,ESE,5.8,-,N/A,,Clear,110,2013-09-17 04:35:00
11:55 PM,50.0,44.6,82,30.30,10.0,ESE,5.8,-,N/A,,Scattered Clouds,120,2013-09-17 04:55:00